QPF
0.03 0.03 0.04 0.11 0.10 0.08 0.08 0.08 0.09 0.12 0.14 0.17 0.18 0.15 0.15 0.17 0.16 0.16 0.18 0.14 0.12 0.12 0.11 0.10 0.11 0.09 0.07 0.05 0.03 0.02 0.01 0.01 0.01 0.01 0.01 0.02 0.02 0.02 0.02 0.01 0.02 0.03 0.05
0.02 0.02 0.03 0.07 0.11 0.09 0.07 0.06 0.08 0.11 0.14 0.15 0.17 0.17 0.16 0.14 0.12 0.13 0.16 0.14 0.11 0.11 0.13 0.13 0.11 0.09 0.07 0.05 0.03 0.03 0.02 0.01 0.01 0.01 0.01 0.02 0.03 0.03 0.02 0.01 0.02 0.02 0.03
0.02 0.02 0.02 0.04 0.08 0.10 0.08 0.06 0.05 0.07 0.11 0.14 0.15 0.18 0.19 0.16 0.13 0.11 0.13 0.13 0.10 0.08 0.08 0.10 0.12 0.10 0.08 0.06 0.04 0.03 0.03 0.03 0.02 0.01 0.01 0.01 0.02 0.02 0.03 0.02 0.02 0.02 0.02
0.01 0.01 0.02 0.02 0.04 0.08 0.09 0.08 0.05 0.05 0.08 0.11 0.13 0.13 0.17 0.17 0.13 0.11 0.11 0.11 0.08 0.08 0.09 0.09 0.09 0.09 0.08 0.06 0.04 0.04 0.03 0.02 0.02 0.02 0.01 0.01 0.01 0.01 0.02 0.03 0.02 0.02 0.02
0.01 0.01 0.01 0.02 0.02 0.05 0.08 0.08 0.05 0.03 0.04 0.06 0.09 0.10 0.12 0.15 0.13 0.10 0.10 0.10 0.08 0.07 0.08 0.09 0.10 0.09 0.08 0.07 0.05 0.04 0.04 0.03 0.02 0.02 0.02 0.01 0.01 0.01 0.01 0.02 0.02 0.02 0.01
0.01 0.01 0.01 0.02 0.02 0.04 0.05 0.05 0.04 0.04 0.04 0.05 0.06 0.08 0.09 0.10 0.10 0.09 0.09 0.09 0.07 0.06 0.06 0.05 0.05 0.06 0.07 0.07 0.07 0.06 0.05 0.04 0.03 0.02 0.02 0.01 0.01 0.01 0.01 0.01 0.01 0.02 0.01
0.01 0.01 0.02 0.02 0.02 0.03 0.03 0.03 0.04 0.03 0.03 0.05 0.04 0.05 0.07 0.08 0.08 0.07 0.07 0.07 0.06 0.04 0.04 0.04 0.03 0.03 0.04 0.04 0.04 0.04 0.04 0.04 0.03 0.02 0.02 0.01 0.01 0.01 0.01 0.01 0.01 0.01 0.01
0.01 0.01 0.01 0.01 0.02 0.02 0.02 0.03 0.04 0.03 0.02 0.03 0.04 0.04 0.05 0.06 0.06 0.06 0.06 0.05 0.05 0.04 0.03 0.03 0.03 0.02 0.03 0.04 0.03 0.03 0.04 0.04 0.04 0.03 0.02 0.02 0.01 0.01 0.01 0.01 0.01 0.01 0.01
0.01 0.01 0.01 0.01 0.01 0.02 0.03 0.03 0.03 0.04 0.03 0.02 0.02 0.03 0.05 0.05 0.05 0.05 0.05 0.04 0.04 0.03 0.03 0.04 0.03 0.02 0.02 0.04 0.04 0.04 0.03 0.04 0.04 0.05 0.04 0.03 0.02 0.02 0.01 0.01 0.01 0.01 0.01
0.01 0.01 0.01 0.01 0.02 0.03 0.04 0.05 0.05 0.06 0.04 0.02 0.02 0.02 0.04 0.05 0.04 0.03 0.03 0.04 0.03 0.02 0.03 0.04 0.04 0.03 0.02 0.02 0.03 0.04 0.03 0.03 0.03 0.04 0.04 0.04 0.03 0.03 0.02 0.02 0.01 0.01 0.01
0.01 0.01 0.01 0.01 0.02 0.03 0.05 0.06 0.07 0.06 0.05 0.03 0.03 0.03 0.02 0.04 0.05 0.03 0.02 0.02 0.02 0.02 0.02 0.02 0.03 0.04 0.03 0.02 0.01 0.02 0.02 0.03 0.03 0.03 0.03 0.04 0.04 0.04 0.03 0.02 0.02 0.01 0.01
0.01 0.01 0.01 0.01 0.02 0.03 0.04 0.05 0.06 0.05 0.05 0.05 0.04 0.04 0.04 0.05 0.05 0.04 0.03 0.02 0.03 0.02 0.02 0.02 0.03 0.03 0.03 0.02 0.01 0.01 0.01 0.01 0.02 0.02 0.03 0.03 0.03 0.04 0.03 0.02 0.01 0.01 0.01
0.02 0.01 0.01 0.01 0.01 0.02 0.03 0.03 0.03 0.04 0.05 0.06 0.06 0.06 0.07 0.07 0.06 0.04 0.03 0.03 0.03 0.04 0.02 0.02 0.03 0.03 0.03 0.03 0.02 0.01 0.00 0.00 0.01 0.02 0.02 0.03 0.03 0.03 0.04 0.03 0.02 0.01 0.01
0.02 0.02 0.01 0.01 0.01 0.01 0.02 0.02 0.02 0.03 0.05 0.07 0.07 0.08 0.09 0.08 0.07 0.05 0.03 0.03 0.04 0.05 0.04 0.02 0.02 0.02 0.02 0.03 0.02 0.01 0.01 0.00 0.00 0.01 0.02 0.02 0.03 0.03 0.03 0.03 0.02 0.01 0.01
0.03 0.02 0.02 0.02 0.01 0.01 0.01 0.02 0.02 0.02 0.04 0.07 0.09 0.08 0.08 0.08 0.07 0.06 0.04 0.03 0.03 0.05 0.05 0.03 0.02 0.02 0.02 0.03 0.03 0.02 0.02 0.01 0.01 0.01 0.02 0.02 0.03 0.03 0.03 0.03 0.02 0.01 0.01
0.03 0.03 0.02 0.02 0.01 0.01 0.01 0.01 0.02 0.02 0.03 0.05 0.07 0.08 0.08 0.08 0.07 0.06 0.04 0.03 0.03 0.04 0.06 0.05 0.03 0.01 0.02 0.02 0.02 0.03 0.02 0.02 0.02 0.02 0.02 0.02 0.02 0.02 0.03 0.02 0.02 0.01 0.01
0.02 0.03 0.03 0.03 0.02 0.02 0.01 0.01 0.02 0.02 0.02 0.04 0.05 0.07 0.08 0.07 0.07 0.06 0.06 0.05 0.05 0.05 0.05 0.05 0.04 0.02 0.01 0.01 0.02 0.02 0.02 0.01 0.02 0.02 0.02 0.02 0.02 0.02 0.02 0.02 0.02 0.01 0.01
0.01 0.02 0.04 0.04 0.03 0.02 0.02 0.02 0.02 0.02 0.03 0.03 0.04 0.06 0.07 0.07 0.05 0.06 0.07 0.07 0.06 0.06 0.05 0.05 0.05 0.04 0.03 0.03 0.02 0.03 0.02 0.02 0.01 0.01 0.01 0.01 0.01 0.01 0.01 0.01 0.01 0.01 0.01
0.01 0.01 0.02 0.03 0.04 0.04 0.03 0.02 0.02 0.02 0.02 0.02 0.03 0.04 0.05 0.06 0.06 0.05 0.05 0.06 0.06 0.06 0.05 0.05 0.05 0.04 0.03 0.03 0.04 0.04 0.03 0.02 0.01 0.01 0.01 0.01 0.01 0.01 0.01 0.01 0.01 0.01 0.01
0.01 0.01 0.01 0.02 0.03 0.04 0.04 0.03 0.02 0.02 0.02 0.02 0.03 0.03 0.03 0.04 0.05 0.05 0.04 0.04 0.05 0.05 0.05 0.05 0.04 0.04 0.04 0.03 0.03 0.03 0.03 0.02 0.01 0.01 0.01 0.01 0.01 0.01 0.01 0.01 0.01 0.01 0.01
0.01 0.01 0.01 0.01 0.02 0.03 0.04 0.02 0.01 0.01 0.01 0.01 0.01 0.02 0.02 0.03 0.03 0.03 0.03 0.03 0.03 0.03 0.04 0.04 0.04 0.04 0.04 0.04 0.03 0.03 0.03 0.03 0.02 0.01 0.01 0.01 0.01 0.01 0.01 0.01 0.01 0.00 0.01
0.01 0.01 0.01 0.00 0.01 0.02 0.02 0.02 0.01 0.01 0.00 0.00 0.01 0.01 0.01 0.01 0.02 0.02 0.02 0.02 0.02 0.03 0.02 0.02 0.03 0.03 0.03 0.03 0.03 0.03 0.03 0.03 0.02 0.02 0.02 0.02 0.02 0.01 0.01 0.01 0.01 0.01 0.01
0.00 0.00 0.00 0.00 0.00 0.00 0.01 0.01 0.01 0.00 0.00 0.00 0.01 0.01 0.01 0.01 0.01 0.01 0.01 0.01 0.01 0.02 0.02 0.02 0.02 0.02 0.02 0.02 0.02 0.02 0.02 0.02 0.02 0.02 0.02 0.02 0.02 0.02 0.02 0.01 0.01 0.01 0.01
0.00 0.01 0.01 0.00 0.00 0.00 0.00 0.00 0.00 0.00 0.00 0.00 0.00 0.01 0.01 0.00 0.00 0.00 0.00 0.01 0.01 0.01 0.01 0.01 0.02 0.02 0.02 0.02 0.02 0.02 0.02 0.02 0.02 0.01 0.02 0.02 0.02 0.02 0.02 0.02 0.02 0.01 0.01
0.00 0.00 0.00 0.00 0.00 0.00 0.00 0.00 0.00 0.00 0.00 0.00 0.00 0.00 0.00 0.00 0.00 0.00 0.00 0.01 0.01 0.01 0.01 0.01 0.01 0.01 0.02 0.02 0.02 0.02 0.02 0.02 0.02 0.02 0.02 0.02 0.02 0.01 0.01 0.01 0.01 0.01 0.01
0.00 0.00 0.00 0.00 0.00 0.00 0.00 0.00 0.00 0.00 0.00 0.00 0.00 0.00 0.00 0.00 0.00 0.00 0.00 0.00 0.00 0.01 0.01 0.01 0.01 0.01 0.01 0.02 0.02 0.02 0.02 0.02 0.02 0.02 0.02 0.02 0.02 0.01 0.01 0.01 0.01 0.01 0.01
MSLP
1016.45 1016.04 1015.60 1015.16 1014.76 1014.40 1014.12 1013.92 1013.81 1013.75 1013.72 1013.70 1013.66 1013.57 1013.45 1013.28 1013.09 1012.91 1012.76 1012.68 1012.69 1012.80 1013.03 1013.38 1013.84 1014.39 1015.02 1015.71 1016.44 1017.18 1017.92 1018.63 1019.30 1019.91 1020.45 1020.91 1021.28 1021.57 1021.78 1021.90 1021.96 1021.97 1021.93
1016.63 1016.26 1015.86 1015.45 1015.04 1014.67 1014.36 1014.14 1014.01 1013.97 1013.97 1014.00 1014.02 1014.01 1013.94 1013.82 1013.66 1013.48 1013.31 1013.19 1013.15 1013.20 1013.36 1013.65 1014.04 1014.52 1015.08 1015.70 1016.35 1017.03 1017.70 1018.37 1019.02 1019.63 1020.19 1020.69 1021.13 1021.48 1021.75 1021.95 1022.06 1022.12 1022.14
1016.76 1016.44 1016.09 1015.69 1015.29 1014.90 1014.57 1014.32 1014.18 1014.13 1014.16 1014.24 1014.33 1014.39 1014.40 1014.34 1014.23 1014.08 1013.92 1013.78 1013.71 1013.72 1013.83 1014.05 1014.36 1014.76 1015.23 1015.74 1016.30 1016.88 1017.47 1018.07 1018.67 1019.26 1019.82 1020.35 1020.82 1021.22 1021.54 1021.79 1021.97 1022.08 1022.14
1016.80 1016.54 1016.23 1015.87 1015.48 1015.09 1014.74 1014.47 1014.31 1014.25 1014.30 1014.42 1014.56 1014.69 1014.78 1014.80 1014.75 1014.65 1014.52 1014.40 1014.32 1014.30 1014.37 1014.53 1014.77 1015.09 1015.45 1015.87 1016.31 1016.78 1017.28 1017.79 1018.33 1018.87 1019.42 1019.94 1020.42 1020.85 1021.21 1021.49 1021.70 1021.85 1021.96
1016.72 1016.53 1016.29 1015.98 1015.61 1015.23 1014.88 1014.59 1014.41 1014.35 1014.41 1014.55 1014.74 1014.93 1015.08 1015.17 1015.19 1015.15 1015.06 1014.97 1014.90 1014.89 1014.93 1015.05 1015.23 1015.47 1015.75 1016.06 1016.41 1016.77 1017.17 1017.60 1018.06 1018.55 1019.06 1019.56 1020.03 1020.45 1020.81 1021.11 1021.34 1021.51 1021.65
1016.53 1016.41 1016.24 1016.00 1015.68 1015.33 1014.98 1014.69 1014.50 1014.44 1014.49 1014.65 1014.87 1015.10 1015.31 1015.46 1015.54 1015.55 1015.52 1015.47 1015.43 1015.42 1015.46 1015.56 1015.70 1015.88 1016.09 1016.33 1016.59 1016.87 1017.18 1017.54 1017.93 1018.36 1018.81 1019.27 1019.71 1020.11 1020.45 1020.73 1020.96 1021.14 1021.30
1016.24 1016.20 1016.11 1015.93 1015.68 1015.37 1015.06 1014.78 1014.59 1014.52 1014.58 1014.73 1014.96 1015.22 1015.46 1015.66 1015.79 1015.85 1015.87 1015.86 1015.85 1015.87 1015.92 1016.01 1016.13 1016.29 1016.46 1016.65 1016.85 1017.07 1017.32 1017.61 1017.95 1018.32 1018.72 1019.12 1019.52 1019.87 1020.18 1020.44 1020.64 1020.82 1020.98
1015.90 1015.92 1015.91 1015.81 1015.63 1015.38 1015.10 1014.85 1014.68 1014.61 1014.66 1014.81 1015.04 1015.30 1015.56 1015.78 1015.94 1016.05 1016.10 1016.13 1016.16 1016.21 1016.28 1016.38 1016.51 1016.65 1016.81 1016.98 1017.15 1017.34 1017.56 1017.81 1018.10 1018.42 1018.77 1019.13 1019.47 1019.78 1020.04 1020.26 1020.44 1020.60 1020.75
1015.55 1015.63 1015.67 1015.64 1015.52 1015.33 1015.10 1014.89 1014.74 1014.68 1014.72 1014.87 1015.09 1015.35 1015.60 1015.83 1016.01 1016.14 1016.23 1016.29 1016.35 1016.43 1016.53 1016.65 1016.80 1016.96 1017.12 1017.29 1017.46 1017.65 1017.85 1018.08 1018.34 1018.63 1018.94 1019.25 1019.54 1019.81 1020.03 1020.22 1020.37 1020.51 1020.66
1015.25 1015.36 1015.44 1015.46 1015.40 1015.25 1015.07 1014.89 1014.76 1014.71 1014.76 1014.90 1015.10 1015.35 1015.60 1015.82 1016.00 1016.14 1016.25 1016.34 1016.43 1016.53 1016.66 1016.81 1016.99 1017.17 1017.36 1017.55 1017.74 1017.93 1018.14 1018.36 1018.61 1018.88 1019.16 1019.43 1019.69 1019.92 1020.12 1020.28 1020.42 1020.55 1020.69
1015.04 1015.16 1015.26 1015.30 1015.26 1015.15 1015.00 1014.85 1014.74 1014.70 1014.75 1014.88 1015.07 1015.30 1015.53 1015.74 1015.92 1016.06 1016.18 1016.29 1016.40 1016.53 1016.68 1016.87 1017.07 1017.29 1017.50 1017.72 1017.93 1018.14 1018.36 1018.59 1018.84 1019.09 1019.35 1019.61 1019.85 1020.06 1020.24 1020.39 1020.53 1020.66 1020.80
1014.94 1015.04 1015.13 1015.17 1015.13 1015.03 1014.89 1014.76 1014.66 1014.63 1014.68 1014.80 1014.97 1015.18 1015.40 1015.60 1015.77 1015.91 1016.04 1016.16 1016.29 1016.44 1016.62 1016.83 1017.06 1017.30 1017.55 1017.79 1018.02 1018.25 1018.48 1018.72 1018.97 1019.22 1019.47 1019.72 1019.94 1020.15 1020.33 1020.49 1020.63 1020.77 1020.92
1014.93 1015.02 1015.08 1015.09 1015.03 1014.91 1014.77 1014.63 1014.53 1014.50 1014.54 1014.65 1014.81 1015.00 1015.20 1015.39 1015.56 1015.70 1015.83 1015.97 1016.12 1016.29 1016.49 1016.72 1016.97 1017.24 1017.50 1017.76 1018.01 1018.25 1018.49 1018.73 1018.98 1019.22 1019.47 1019.72 1019.95 1020.16 1020.35 1020.52 1020.68 1020.84 1021.00
1015.01 1015.07 1015.10 1015.06 1014.95 1014.80 1014.63 1014.47 1014.36 1014.31 1014.33 1014.43 1014.57 1014.75 1014.94 1015.12 1015.29 1015.44 1015.58 1015.73 1015.90 1016.09 1016.32 1016.57 1016.83 1017.11 1017.39 1017.65 1017.91 1018.16 1018.40 1018.64 1018.88 1019.12 1019.37 1019.61 1019.84 1020.06 1020.27 1020.46 1020.65 1020.82 1021.00
1015.12 1015.17 1015.15 1015.05 1014.89 1014.69 1014.48 1014.28 1014.14 1014.07 1014.08 1014.15 1014.28 1014.44 1014.62 1014.80 1014.97 1015.14 1015.30 1015.47 1015.66 1015.88 1016.12 1016.39 1016.67 1016.95 1017.24 1017.51 1017.77 1018.01 1018.24 1018.47 1018.71 1018.94 1019.18 1019.42 1019.66 1019.90 1020.12 1020.33 1020.53 1020.73 1020.92
1015.24 1015.26 1015.21 1015.06 1014.84 1014.58 1014.32 1014.08 1013.90 1013.80 1013.77 1013.82 1013.93 1014.09 1014.26 1014.45 1014.63 1014.81 1015.00 1015.20 1015.42 1015.66 1015.93 1016.21 1016.51 1016.80 1017.09 1017.36 1017.61 1017.85 1018.08 1018.30 1018.52 1018.74 1018.98 1019.22 1019.46 1019.70 1019.93 1020.16 1020.37 1020.58 1020.78
1015.32 1015.33 1015.24 1015.05 1014.78 1014.46 1014.15 1013.86 1013.64 1013.50 1013.45 1013.47 1013.56 1013.70 1013.88 1014.07 1014.27 1014.48 1014.70 1014.94 1015.19 1015.47 1015.76 1016.07 1016.38 1016.68 1016.97 1017.25 1017.50 1017.73 1017.95 1018.16 1018.37 1018.59 1018.81 1019.05 1019.29 1019.53 1019.77 1020.00 1020.22 1020.43 1020.62
1015.35 1015.35 1015.23 1015.00 1014.68 1014.33 1013.97 1013.64 1013.38 1013.20 1013.11 1013.11 1013.18 1013.32 1013.49 1013.70 1013.92 1014.17 1014.43 1014.70 1015.00 1015.31 1015.64 1015.97 1016.30 1016.62 1016.93 1017.21 1017.47 1017.70 1017.92 1018.12 1018.33 1018.53 1018.75 1018.97 1019.20 1019.43 1019.67 1019.89 1020.11 1020.31 1020.50
1015.32 1015.31 1015.16 1014.90 1014.56 1014.17 1013.78 1013.42 1013.13 1012.92 1012.80 1012.77 1012.83 1012.95 1013.13 1013.36 1013.61 1013.89 1014.20 1014.52 1014.86 1015.22 1015.58 1015.94 1016.30 1016.64 1016.96 1017.26 1017.52 1017.77 1017.99 1018.20 1018.40 1018.60 1018.80 1019.01 1019.22 1019.45 1019.66 1019.88 1020.08 1020.26 1020.43
1015.24 1015.21 1015.04 1014.77 1014.41 1014.00 1013.60 1013.22 1012.90 1012.67 1012.53 1012.48 1012.52 1012.64 1012.83 1013.08 1013.36 1013.69 1014.04 1014.41 1014.80 1015.19 1015.59 1015.99 1016.37 1016.73 1017.08 1017.39 1017.67 1017.93 1018.16 1018.37 1018.57 1018.77 1018.96 1019.16 1019.36 1019.56 1019.75 1019.94 1020.12 1020.29 1020.43
1015.14 1015.09 1014.90 1014.62 1014.26 1013.85 1013.44 1013.05 1012.73 1012.48 1012.32 1012.26 1012.29 1012.42 1012.62 1012.89 1013.21 1013.57 1013.97 1014.38 1014.81 1015.25 1015.68 1016.10 1016.51 1016.89 1017.25 1017.58 1017.88 1018.15 1018.40 1018.62 1018.82 1019.02 1019.20 1019.38 1019.56 1019.73 1019.90 1020.07 1020.23 1020.37 1020.49
1015.05 1014.97 1014.78 1014.49 1014.14 1013.74 1013.34 1012.96 1012.63 1012.37 1012.21 1012.14 1012.17 1012.30 1012.52 1012.81 1013.16 1013.57 1014.00 1014.45 1014.92 1015.38 1015.83 1016.27 1016.69 1017.09 1017.45 1017.80 1018.11 1018.39 1018.65 1018.88 1019.09 1019.29 1019.46 1019.63 1019.78 1019.93 1020.08 1020.21 1020.35 1020.47 1020.58
1015.01 1014.90 1014.70 1014.42 1014.09 1013.71 1013.33 1012.96 1012.64 1012.38 1012.21 1012.15 1012.18 1012.32 1012.55 1012.87 1013.25 1013.68 1014.15 1014.63 1015.11 1015.59 1016.05 1016.48 1016.90 1017.29 1017.66 1018.00 1018.31 1018.61 1018.87 1019.11 1019.33 1019.52 1019.69 1019.84 1019.98 1020.11 1020.23 1020.34 1020.45 1020.56 1020.65
1015.03 1014.90 1014.70 1014.44 1014.12 1013.78 1013.42 1013.07 1012.76 1012.52 1012.36 1012.30 1012.34 1012.49 1012.73 1013.07 1013.47 1013.92 1014.41 1014.90 1015.38 1015.85 1016.30 1016.72 1017.11 1017.48 1017.82 1018.15 1018.46 1018.75 1019.01 1019.26 1019.48 1019.67 1019.84 1019.98 1020.11 1020.22 1020.33 1020.43 1020.52 1020.62 1020.71
1015.14 1015.00 1014.81 1014.56 1014.28 1013.96 1013.63 1013.31 1013.02 1012.80 1012.65 1012.60 1012.65 1012.81 1013.07 1013.41 1013.83 1014.29 1014.77 1015.25 1015.72 1016.16 1016.57 1016.95 1017.29 1017.62 1017.93 1018.23 1018.52 1018.80 1019.06 1019.30 1019.52 1019.72 1019.89 1020.03 1020.16 1020.26 1020.36 1020.46 1020.55 1020.65 1020.74
1015.33 1015.19 1015.02 1014.80 1014.54 1014.26 1013.97 1013.68 1013.42 1013.21 1013.08 1013.04 1013.11 1013.28 1013.54 1013.89 1014.30 1014.75 1015.21 1015.66 1016.09 1016.49 1016.84 1017.16 1017.45 1017.72 1017.98 1018.23 1018.49 1018.75 1019.00 1019.24 1019.46 1019.67 1019.84 1020.00 1020.13 1020.24 1020.35 1020.45 1020.54 1020.64 1020.74
Thickness
5572 5571 5570 5569 5569 5568 5569 5569 5570 5572 5574 5574 5576 5576 5578 5581 5584 5588 5592 5597 5601 5605 5608 5612 5614 5617 5618 5620 5621 5622 5622 5622 5623 5622 5618 5618 5619 5620 5621 5621 5621 5621 5620
5567 5566 5565 5564 5563 5562 5563 5563 5563 5565 5567 5568 5568 5568 5569 5571 5574 5578 5582 5588 5592 5596 5600 5603 5607 5609 5610 5612 5614 5615 5614 5614 5616 5616 5612 5609 5609 5610 5612 5612 5612 5612 5611
5564 5562 5560 5559 5557 5557 5557 5558 5557 5558 5560 5561 5560 5559 5560 5562 5564 5568 5573 5578 5583 5588 5592 5596 5599 5601 5603 5604 5606 5608 5609 5607 5607 5610 5610 5606 5604 5602 5602 5603 5603 5603 5602
5560 5558 5557 5555 5553 5553 5552 5552 5552 5552 5553 5554 5554 5554 5554 5555 5557 5560 5564 5569 5574 5579 5583 5587 5591 5593 5595 5596 5599 5601 5602 5603 5601 5601 5603 5604 5603 5598 5594 5593 5594 5594 5593
5556 5554 5553 5551 5550 5548 5547 5545 5545 5545 5546 5547 5548 5548 5548 5548 5550 5553 5556 5560 5564 5569 5574 5578 5581 5585 5587 5588 5590 5592 5593 5595 5594 5595 5595 5595 5594 5593 5590 5586 5584 5584 5584
5552 5551 5549 5547 5545 5543 5542 5541 5540 5539 5539 5539 5541 5541 5541 5542 5543 5545 5548 5552 5555 5560 5564 5568 5572 5576 5578 5580 5582 5583 5584 5585 5586 5587 5588 5589 5588 5586 5584 5580 5577 5575 5574
5547 5545 5543 5542 5540 5538 5537 5535 5534 5533 5533 5533 5534 5535 5536 5536 5537 5539 5541 5544 5547 5552 5555 5558 5562 5566 5569 5570 5573 5574 5575 5576 5577 5578 5579 5581 5582 5581 5579 5575 5569 5566 5564
5542 5541 5539 5538 5536 5534 5533 5531 5529 5528 5528 5528 5529 5529 5530 5530 5532 5533 5535 5538 5541 5544 5547 5550 5553 5556 5560 5562 5564 5565 5566 5566 5568 5569 5569 5570 5571 5572 5571 5568 5562 5557 5553
5539 5537 5535 5533 5531 5530 5529 5527 5525 5523 5523 5522 5523 5523 5524 5525 5526 5527 5529 5531 5534 5538 5540 5542 5544 5548 5551 5553 5555 5556 5556 5557 5558 5558 5559 5560 5560 5561 5561 5560 5557 5553 5546
5534 5534 5531 5529 5527 5526 5524 5523 5520 5519 5518 5517 5517 5518 5518 5519 5520 5521 5522 5524 5527 5530 5533 5535 5537 5539 5541 5543 5545 5546 5547 5547 5547 5548 5549 5549 5549 5550 5549 5548 5547 5545 5541
5529 5527 5526 5524 5522 5521 5519 5518 5516 5515 5514 5513 5512 5512 5512 5513 5514 5515 5516 5517 5519 5523 5526 5527 5527 5528 5530 5533 5534 5536 5537 5537 5537 5538 5539 5539 5538 5538 5537 5536 5535 5533 5530
5524 5522 5520 5518 5517 5515 5514 5512 5511 5510 5509 5508 5507 5507 5507 5507 5508 5510 5511 5512 5513 5515 5517 5518 5519 5520 5521 5523 5525 5526 5527 5527 5527 5528 5528 5528 5527 5526 5525 5524 5523 5521 5518
5519 5516 5514 5512 5511 5510 5509 5507 5506 5505 5505 5503 5502 5501 5501 5502 5503 5504 5505 5506 5506 5507 5509 5510 5511 5512 5513 5514 5516 5517 5517 5518 5518 5519 5519 5518 5516 5515 5514 5512 5511 5509 5506
5512 5510 5508 5506 5505 5505 5503 5502 5501 5501 5500 5499 5498 5497 5498 5498 5499 5499 5499 5500 5500 5500 5501 5502 5503 5504 5505 5505 5506 5507 5508 5508 5508 5509 5508 5507 5506 5505 5503 5501 5499 5496 5492
5506 5505 5503 5501 5500 5499 5498 5497 5496 5495 5494 5493 5493 5493 5493 5494 5493 5493 5493 5493 5493 5493 5493 5494 5494 5495 5496 5496 5497 5498 5498 5498 5498 5498 5497 5497 5496 5496 5494 5491 5488 5485 5480
5501 5500 5498 5496 5494 5493 5492 5492 5490 5490 5489 5488 5487 5487 5487 5487 5487 5486 5487 5487 5486 5485 5485 5486 5486 5487 5488 5489 5489 5489 5489 5488 5488 5488 5487 5486 5485 5484 5483 5482 5479 5475 5471
5495 5493 5492 5490 5489 5487 5487 5485 5485 5483 5482 5481 5480 5479 5479 5479 5479 5479 5479 5479 5478 5477 5477 5478 5478 5478 5479 5480 5481 5481 5480 5479 5479 5478 5476 5475 5475 5473 5471 5469 5466 5464 5461
5488 5487 5485 5483 5482 5481 5480 5479 5477 5476 5474 5473 5472 5471 5471 5470 5470 5470 5470 5469 5469 5469 5469 5470 5470 5470 5470 5471 5471 5471 5470 5469 5468 5467 5466 5464 5463 5461 5458 5455 5453 5450 5447
5481 5479 5477 5476 5473 5472 5472 5470 5469 5467 5466 5465 5464 5463 5462 5461 5461 5461 5461 5460 5460 5460 5460 5461 5460 5460 5460 5460 5460 5459 5458 5457 5456 5455 5454 5453 5451 5450 5448 5444 5441 5438 5435
5472 5470 5468 5466 5464 5463 5462 5461 5459 5458 5457 5456 5455 5455 5454 5453 5452 5452 5451 5451 5451 5451 5450 5450 5450 5450 5449 5449 5449 5448 5446 5445 5444 5443 5442 5441 5440 5438 5436 5432 5428 5425 5423
5461 5460 5458 5455 5454 5453 5452 5450 5449 5448 5448 5447 5446 5445 5444 5443 5443 5442 5442 5441 5441 5440 5440 5439 5438 5438 5438 5438 5437 5436 5435 5434 5432 5431 5429 5428 5427 5426 5423 5420 5417 5415 5412
5449 5448 5446 5443 5442 5442 5440 5439 5437 5437 5436 5436 5435 5434 5433 5433 5432 5431 5431 5430 5429 5429 5428 5427 5426 5425 5425 5425 5425 5425 5424 5423 5421 5419 5418 5416 5415 5413 5411 5408 5405 5402 5399
5436 5435 5433 5431 5429 5429 5429 5427 5426 5425 5425 5424 5422 5422 5421 5421 5420 5419 5418 5417 5417 5416 5416 5415 5414 5413 5413 5413 5413 5413 5413 5412 5410 5408 5406 5404 5403 5401 5398 5396 5393 5389 5384
5422 5422 5420 5418 5416 5416 5416 5415 5414 5413 5413 5412 5411 5410 5409 5409 5408 5407 5406 5405 5404 5404 5403 5403 5402 5401 5401 5400 5400 5400 5399 5399 5397 5395 5393 5392 5390 5387 5385 5382 5378 5374 5371
5409 5408 5407 5405 5404 5404 5403 5403 5402 5402 5400 5399 5398 5398 5397 5396 5395 5394 5393 5393 5393 5392 5392 5392 5391 5390 5389 5390 5390 5388 5387 5386 5384 5382 5380 5377 5374 5372 5370 5367 5364 5360 5357
5395 5394 5393 5392 5391 5391 5390 5390 5390 5389 5388 5387 5386 5385 5384 5383 5382 5381 5381 5382 5382 5382 5381 5381 5379 5379 5379 5379 5379 5378 5377 5376 5374 5371 5368 5366 5363 5361 5359 5355 5351 5348 5345